Regional Weather Roundup
Issued by NWS

Home | Current Version | Previous Version | Text Only | Print | Product List | Glossary On
Versions: 1 2 3 4 5 6 7 8 9 10 11 12 13 14 15 16 17 18 19 20 21 22 23 24 25 26 27 28 29 30 31 32 33 34 35 36 37 38 39 40 41 42 43 44 45 46 47 48 49 50
000
ASUS43 KLMK 181210
RWRKY
KENTUCKY REGIONAL WEATHER ROUNDUP
NATIONAL WEATHER SERVICE LOUISVILLE KY
800 AM EDT FRI APR 18 2014

NOTE "FAIR" INDICATES FEW OR NO CLOUDS BELOW 12,000 FEET
WITH NO SIGNIFICANT WEATHER AND/OR OBSTRUCTIONS TO VISIBILITY.

KYZ001>023-026-027-061>063-070>075-181300-
WESTERN AND SOUTH CENTRAL KENTUCKY

CITY           SKY/WX    TMP DP  RH WIND       PRES   REMARKS
PADUCAH        PTCLDY    49  44  83 CALM      30.24R
HENDERSON      CLEAR     43  39  87 CALM      30.26S
OWENSBORO      MOCLDY    46  41  83 CALM      30.28R
HOPKINSVILLE   MOCLDY    50  41  71 SE5       30.27R
BOWLING GREEN  MOCLDY    48  42  80 CALM      30.30R
GLASGOW        CLOUDY    48  43  82 CALM      30.31R
$$

KYZ024-025-028>034-038-045-046-053-181300-
NORTH CENTRAL KENTUCKY

CITY           SKY/WX    TMP DP  RH WIND       PRES   REMARKS
LOUISVILLE/SDF PTSUNNY   48  40  73 S7        30.30R
LOUISVILLE/LOU PTSUNNY   49  40  71 CALM      30.30R
FORT KNOX      MOCLDY    45  39  81 CALM      30.28R
$$

KYZ035>037-039>044-047>052-055>060-089>105-181300-
NORTHEAST KENTUCKY

CITY           SKY/WX    TMP DP  RH WIND       PRES   REMARKS
LEXINGTON      CLOUDY    52  37  56 S6        30.30R
COVINGTON      PTSUNNY   47  37  68 CALM      30.29R
FRANKFORT      CLOUDY    43  39  86 CALM      30.28R
$$

KYZ054-064>069-076>088-106>120-181300-
SOUTHEAST KENTUCKY

CITY           SKY/WX    TMP DP  RH WIND       PRES   REMARKS
JACKSON        CLOUDY    52  26  36 SW3       30.32R
LONDON         CLOUDY    49  39  68 CALM      30.33R
SOMERSET       CLOUDY    50  37  62 CALM      30.33R
MIDDLESBORO    CLOUDY    44  38  78 CALM      30.36R
MONTICELLO     CLOUDY    49  45  86 CALM      30.33R
$$




USA.gov is the U.S. government's official web portal to all federal, state and local government web resources and services.